Location: IoMAS Observatory
(54.1780°N, 4.6265°W)
Time: 09:57:54
(UTC+01:00)

ISS - Pass Details

Date: 30 November 2021
Orbit: 413 x 422 km, 51.6° (Epoch: 23 January)

Event Time Altitude Azimuth Distance (km) Brightness Sun altitude
Rises 17:44:26 0° 251° (WSW) 2,382 2.3 -6.2°
Reaches altitude 10° 17:46:34 10° 247° (WSW) 1,516 0.9 -6.5°
Maximum altitude 17:49:52 50° 171° (S) 547 -3.0 -6.9°
Drops below altitude 10° 17:53:11 10° 94° (E) 1,513 -1.4 -7.3°
Enters shadow 17:53:47 - 92° (E) 1,754 -1.1 -7.4°
